Location: Unspecified
(0.0000°N, 0.0000°E)
Time: 06:49:18
(UTC+02:00)

Cosmos 1340 - Visible Passes

Search period start: 20 August 2014 00:00
Search period end: 30 August 2014 00:00
Orbit: 524 x 529 km, 81.2° (Epoch: 19 August)

Date Brightness Start Highest point End Pass type
(mag) Time Alt. Az. Time Alt. Az. Time Alt. Az.
20 Aug 4.8 21:20:19 10° SSW 21:23:43 29° W 21:27:06 10° NNW visible
21 Aug 4.6 21:08:31 10° SSW 21:12:02 33° W 21:15:31 10° NNW visible
22 Aug 4.4 20:56:45 10° SSW 21:00:21 37° W 21:03:56 10° NNW visible
23 Aug 4.2 20:44:58 10° SSW 20:48:39 42° W 20:52:19 10° NNW visible
24 Aug 3.9 20:33:13 10° SSW 20:36:57 48° W 20:40:41 10° N visible
25 Aug 3.7 20:21:28 10° SSW 20:25:15 54° W 20:29:02 10° N visible
